Weather History for CWCL - June, 2012

Change the Weather History Date:

Tuesday, June 5, 2012

  Actual Average Record
Temperature  
Mean Temperature 48 °F -  
Max Temperature 51 °F 61 °F 77 °F (2003)
Min Temperature 44 °F 38 °F 31 °F (2014)
Degree Days  
Heating Degree Days 18    
Moisture  
Dew Point 46 °F    
Average Humidity 91    
Maximum Humidity 100    
Minimum Humidity 82    
Precipitation  
Precipitation 0.16 in - - ()
Sea Level Pressure  
Sea Level Pressure 29.82 in    
Wind  
Wind Speed 3 mph ()    
Max Wind Speed 7 mph    
Max Gust Speed -    
Visibility 6.7 miles    
Events Rain    
Averages and records for this station are not official NWS values.
T = Trace of Precipitation, MM = Missing Value Source: Averaged Metar Reports

Daily Weather History Graph

Daily Weather History Graph

Search for Another Location

Airport or City:

Trip Planner

Search our weather history database for the weather conditions in past years. The results will help you decide how hot, cold, wet, or windy it might be!

Date:

Astronomy

Jun. 05, 2012 Rise Set
Actual Time 4:53 AM PDT 9:16 PM PDT
Civil Twilight 4:07 AM PDT 10:02 PM PDT
Nautical Twilight 2:59 AM PDT 11:10 PM PDT
Astronomical Twilight 1:37 AM PDT 12:32 AM PDT
Moon 10:39 PM PDT 6:14 AM PDT
Length of Visible Light 17h 54m
Length of Day
16h 23m
Full, 97% of the Moon is Illuminated
Jun 5
Full
Jun 11
Last Quarter
Jun 19
New
Jun 26
First Quarter
Jul 3
Full

Hourly Weather History & Observations

Time (PDT) Temp. Windchill Dew Point Humidity Pressure Visibility Wind Dir Wind Speed Gust Speed Precip Events Conditions
12:00 AM 48.2 °F - 46.4 °F 93% 29.73 in 9.0 mi WNW 3.5 mph - N/A Rain Light Rain
12:31 AM 48.2 °F - 46.4 °F 93% 29.69 in 9.0 mi NW 4.6 mph - N/A   Mostly Cloudy
12:54 AM 48.2 °F - 46.4 °F 93% 29.68 in 9.0 mi WNW 3.5 mph - N/A Rain Light Rain
1:00 AM 48.2 °F - 46.4 °F 93% 29.71 in 9.0 mi WNW 3.5 mph - N/A Rain Light Rain
1:25 AM 48.2 °F - 44.6 °F 87% 29.68 in 9.0 mi WNW 4.6 mph - N/A Rain Light Rain
1:32 AM 48.2 °F - 44.6 °F 87% 29.68 in 9.0 mi Calm Calm - N/A Rain Light Rain
2:00 AM 48 °F - 46 °F 88% 29.71 in 3 mi Calm Calm - - Rain Light Rain
2:00 AM 48.2 °F - 46.4 °F 93% 29.71 in 3.5 mi Calm Calm - N/A Rain Light Rain
3:00 AM 48.2 °F - 46.4 °F 93% 29.70 in 5.0 mi Calm Calm - N/A Rain Light Rain
3:09 AM 48.2 °F - 46.4 °F 93% 29.69 in 5.0 mi SSW 3.5 mph - N/A Rain Light Rain
3:28 AM 48.2 °F - 46.4 °F 93% 29.68 in 3.5 mi Calm Calm - N/A Rain Light Rain
3:38 AM 48.2 °F - 44.6 °F 87% 29.68 in 2.5 mi Calm Calm - N/A Rain Light Rain
4:00 AM 46.4 °F - 46.4 °F 100% 29.70 in 2.2 mi Calm Calm - N/A Rain Light Rain
4:16 AM 46.4 °F 45.2 °F 46.4 °F 100% 29.68 in 2.5 mi SW 3.5 mph - N/A Rain Light Rain
4:50 AM 46.4 °F 45.2 °F 44.6 °F 93% 29.67 in 1.6 mi West 3.5 mph - N/A Rain Light Rain
4:59 AM 46.4 °F 44.3 °F 44.6 °F 93% 29.68 in 2.5 mi WSW 4.6 mph - N/A Rain Light Rain
5:00 AM 47 °F - 45 °F 90% 29.70 in 2 mi WSW 4.6 mph - -   Unknown Precipitation
5:00 AM 46.4 °F 45.2 °F 44.6 °F 93% 29.70 in 2.5 mi West 3.5 mph - N/A Rain Light Rain
5:11 AM 46.4 °F 45.2 °F 44.6 °F 93% 29.68 in 2.5 mi West 3.5 mph - N/A   Overcast
5:12 AM 46.4 °F 45.2 °F 44.6 °F 93% 29.68 in 5.0 mi West 3.5 mph - N/A   Overcast
5:18 AM 46.4 °F 45.2 °F 44.6 °F 93% 29.68 in 8.0 mi West 3.5 mph - N/A   Overcast
5:31 AM 46.4 °F 45.2 °F 44.6 °F 93% 29.69 in 7.0 mi West 3.5 mph - N/A   Light Drizzle
5:34 AM 46.4 °F - 44.6 °F 93% 29.69 in 7.0 mi West 2.3 mph - N/A   Light Drizzle
5:39 AM 46.4 °F 45.2 °F 44.6 °F 93% 29.69 in 7.0 mi West 3.5 mph - N/A Rain Light Rain
5:54 AM 46.4 °F 43.5 °F 44.6 °F 93% 29.70 in 7.0 mi WSW 5.8 mph - N/A Rain Light Rain
6:00 AM 46.4 °F 44.3 °F 44.6 °F 93% 29.73 in 6.0 mi WSW 4.6 mph - N/A Rain Light Rain
6:42 AM 46.4 °F 45.2 °F 44.6 °F 93% 29.71 in 3.0 mi WSW 3.5 mph - N/A Rain Light Rain
6:44 AM 46.4 °F 45.2 °F 44.6 °F 93% 29.71 in 2.5 mi SW 3.5 mph - N/A Rain Light Rain
6:49 AM 46.4 °F 45.2 °F 44.6 °F 93% 29.72 in 2.5 mi SSW 3.5 mph - N/A Rain Light Rain
6:55 AM 46.4 °F 44.3 °F 44.6 °F 93% 29.72 in 2.5 mi SSW 4.6 mph - N/A Rain Light Rain
6:59 AM 46.4 °F 45.2 °F 44.6 °F 93% 29.72 in 2.5 mi SW 3.5 mph - N/A Rain Light Rain
7:00 AM 46.4 °F 45.2 °F 44.6 °F 93% 29.74 in 3.5 mi SW 3.5 mph - N/A Rain Light Rain
7:04 AM 46.4 °F 45.2 °F 44.6 °F 93% 29.72 in 4.0 mi SW 3.5 mph - N/A Rain Light Rain
7:44 AM 46.4 °F - 44.6 °F 93% 29.73 in 8.0 mi South 2.3 mph - N/A Rain Light Rain
7:46 AM 46.4 °F - 44.6 °F 93% 29.74 in 7.0 mi SSW 2.3 mph - N/A Rain Light Rain
8:00 AM 46 °F - 45 °F 93% 29.77 in 3 mi SSW 3.5 mph - - Rain Light Rain
8:00 AM 46.4 °F 45.2 °F 44.6 °F 93% 29.77 in 3.5 mi SSW 3.5 mph - N/A Rain Light Rain
8:06 AM 46.4 °F 45.2 °F 44.6 °F 93% 29.74 in 5.0 mi SSW 3.5 mph - N/A Rain Light Rain
8:43 AM 46.4 °F 45.2 °F 44.6 °F 93% 29.76 in 6.0 mi SSW 3.5 mph - N/A Rain Light Rain
9:00 AM 46.4 °F 44.3 °F 44.6 °F 93% 29.80 in 6.0 mi SSW 4.6 mph - N/A Rain Light Rain
9:13 AM 46.4 °F 43.5 °F 44.6 °F 93% 29.77 in 4.0 mi SSW 5.8 mph - N/A Rain Light Rain
9:27 AM 46.4 °F 44.3 °F 44.6 °F 93% 29.78 in 5.0 mi SW 4.6 mph - N/A Rain Light Rain
9:29 AM 46.4 °F 44.3 °F 44.6 °F 93% 29.78 in 5.0 mi SSW 4.6 mph - N/A Rain Light Rain
9:33 AM 46.4 °F 45.2 °F 44.6 °F 93% 29.78 in 6.0 mi SW 3.5 mph - N/A Rain Light Rain
10:00 AM 46.4 °F 44.3 °F 44.6 °F 93% 29.83 in 9.0 mi WSW 4.6 mph - N/A Rain Light Rain
10:05 AM 46.4 °F 44.3 °F 44.6 °F 93% 29.80 in 9.0 mi SW 4.6 mph - N/A   Overcast
10:27 AM 46.4 °F 44.3 °F 44.6 °F 93% 29.80 in 9.0 mi WSW 4.6 mph - N/A Rain Light Rain
10:41 AM 48.2 °F - 44.6 °F 87% 29.81 in 9.0 mi Calm Calm - N/A Rain Light Rain
10:42 AM 48.2 °F - 44.6 °F 87% 29.81 in 9.0 mi Calm Calm - N/A Rain Light Rain
10:52 AM 48.2 °F - 44.6 °F 87% 29.81 in 9.0 mi NNE 3.5 mph - N/A Rain Light Rain
11:00 AM 48 °F - 46 °F 88% 29.84 in 7 mi ENE 3.5 mph - -   Unknown Precipitation
11:00 AM 48.2 °F - 46.4 °F 93% 29.84 in 8.0 mi East 3.5 mph - N/A Rain Light Rain
11:14 AM 48.2 °F - 46.4 °F 93% 29.82 in 6.0 mi East 3.5 mph - N/A Rain Light Rain
11:19 AM 48.2 °F - 46.4 °F 93% 29.82 in 7.0 mi SE 3.5 mph - N/A Rain Light Rain
11:28 AM 48.2 °F - 44.6 °F 87% 29.82 in 7.0 mi SE 3.5 mph - N/A Rain Light Rain
11:57 AM 48.2 °F - 44.6 °F 87% 29.84 in 7.0 mi SE 4.6 mph - N/A Rain Light Rain
11:59 AM 48.2 °F - 46.4 °F 93% 29.84 in 6.0 mi ESE 4.6 mph - N/A Rain Light Rain
12:00 PM 48.2 °F - 46.4 °F 93% 29.87 in 6.0 mi ESE 4.6 mph - N/A Rain Light Rain
12:09 PM 48.2 °F - 44.6 °F 87% 29.84 in 2.4 mi East 2.3 mph - N/A Rain Light Rain
12:35 PM 48.2 °F - 44.6 °F 87% 29.85 in 9.0 mi Calm Calm - N/A Rain Light Rain
12:39 PM 48.2 °F - 44.6 °F 87% 29.85 in 9.0 mi Calm Calm - N/A   Overcast
12:40 PM 48.2 °F - 44.6 °F 87% 29.85 in 9.0 mi Calm Calm - N/A   Overcast
12:43 PM 48.2 °F - 44.6 °F 87% 29.85 in 9.0 mi Calm Calm - N/A   Overcast
12:55 PM 48.2 °F - 44.6 °F 87% 29.85 in 9.0 mi SSW 2.3 mph - N/A Rain Light Rain
1:00 PM 48.2 °F - 44.6 °F 87% 29.88 in 9.0 mi South 2.3 mph - N/A Rain Light Rain
1:28 PM 50.0 °F - 46.4 °F 87% 29.85 in 9.0 mi WSW 3.5 mph - N/A Rain Light Rain
1:57 PM 50.0 °F - 48.2 °F 94% 29.85 in 9.0 mi SSW 3.5 mph - N/A Rain Light Rain
2:00 PM 50 °F - 48 °F 89% 29.88 in 9 mi South 4.6 mph - - Rain Light Rain
2:00 PM 50.0 °F - 48.2 °F 94% 29.88 in 9.0 mi South 6.9 mph - N/A Rain Light Rain
2:09 PM 50.0 °F - 48.2 °F 94% 29.85 in 9.0 mi SSW 4.6 mph - N/A   Mostly Cloudy
2:23 PM 50.0 °F - 48.2 °F 94% 29.86 in 9.0 mi SSW 4.6 mph - N/A   Mostly Cloudy
2:26 PM 50.0 °F - 46.4 °F 87% 29.86 in 9.0 mi SSW 4.6 mph - N/A Rain Light Rain
2:27 PM 50.0 °F - 46.4 °F 87% 29.86 in 9.0 mi South 4.6 mph - N/A Rain Light Rain
2:28 PM 50.0 °F - 46.4 °F 87% 29.86 in 9.0 mi SSW 4.6 mph - N/A   Overcast
2:32 PM 50.0 °F - 46.4 °F 87% 29.86 in 9.0 mi South 5.8 mph - N/A Rain Light Rain
2:34 PM 50.0 °F - 48.2 °F 94% 29.86 in 9.0 mi South 3.5 mph - N/A Rain Light Rain
3:00 PM 50.0 °F - 46.4 °F 87% 29.88 in 9.0 mi SW 2.3 mph - N/A Rain Light Rain
3:04 PM 50.0 °F - 46.4 °F 87% 29.86 in 9.0 mi South 3.5 mph - N/A Rain Light Rain
3:06 PM 51.8 °F - 48.2 °F 88% 29.86 in 9.0 mi South 4.6 mph - N/A   Overcast
4:00 PM 51.8 °F - 46.4 °F 82% 29.89 in 9.0 mi SW 3.5 mph - N/A   Partly Cloudy
4:23 PM 50.0 °F - 44.6 °F 82% 29.88 in 9.0 mi Calm Calm - N/A Rain Light Rain
4:26 PM 50.0 °F - 44.6 °F 82% 29.88 in 9.0 mi Calm Calm - N/A Rain Light Rain
4:31 PM 50.0 °F - 44.6 °F 82% 29.88 in 5.0 mi Calm Calm - N/A Rain Light Rain
4:34 PM 50.0 °F - 46.4 °F 87% 29.88 in 2.2 mi Calm Calm - N/A Rain Light Rain
4:51 PM 50.0 °F - 46.4 °F 87% 29.88 in 2.5 mi South 3.5 mph - N/A Rain Light Rain
4:55 PM 50.0 °F - 46.4 °F 87% 29.88 in 2.5 mi South 3.5 mph - N/A Rain Light Rain
4:57 PM 50.0 °F - 46.4 °F 87% 29.89 in 7.0 mi SSW 3.5 mph - N/A Rain Light Rain
5:00 PM 50 °F - 47 °F 87% 29.92 in 9 mi SSW 3.5 mph - -   Unknown Precipitation
5:00 PM 50.0 °F - 48.2 °F 94% 29.92 in 9.0 mi SSW 4.6 mph - N/A Rain Light Rain
5:57 PM 50.0 °F - 46.4 °F 87% 29.90 in 9.0 mi SW 4.6 mph - N/A Rain Light Rain
6:00 PM 50.0 °F - 46.4 °F 87% 29.94 in 8.0 mi WSW 2.3 mph - N/A Rain Light Rain
6:09 PM 50.0 °F - 46.4 °F 87% 29.90 in 7.0 mi SW 4.6 mph - N/A Rain Light Rain
6:33 PM 48.2 °F - 46.4 °F 93% 29.91 in 9.0 mi SW 3.5 mph - N/A Rain Light Rain
6:41 PM 50.0 °F - 46.4 °F 87% 29.92 in 9.0 mi SW 3.5 mph - N/A Rain Light Rain
6:52 PM 48.2 °F - 46.4 °F 93% 29.92 in 8.0 mi SSW 3.5 mph - N/A Rain Light Rain
6:58 PM 48.2 °F - 46.4 °F 93% 29.92 in 6.0 mi SW 3.5 mph - N/A Rain Light Rain
7:00 PM 48.2 °F - 46.4 °F 93% 29.96 in 5.0 mi SSW 3.5 mph - N/A Rain Light Rain
7:01 PM 48.2 °F - 46.4 °F 93% 29.92 in 5.0 mi SSW 3.5 mph - N/A Rain Light Rain
7:07 PM 48.2 °F - 46.4 °F 93% 29.93 in 5.0 mi SSW 3.5 mph - N/A Rain Light Rain
7:23 PM 48.2 °F - 46.4 °F 93% 29.93 in 5.0 mi SW 2.3 mph - N/A Rain Light Rain
8:00 PM 48 °F - 46 °F 90% 29.97 in 9 mi West 2.3 mph - - Rain Light Rain
8:00 PM 48.2 °F - 46.4 °F 93% 29.97 in 9.0 mi WSW 2.3 mph - N/A Rain Light Rain
8:42 PM 48.2 °F - 46.4 °F 93% 29.94 in 9.0 mi West 2.3 mph - N/A   Scattered Clouds
8:53 PM 48.2 °F - 46.4 °F 93% 29.95 in 9.0 mi SW 2.3 mph - N/A Rain Light Rain
9:00 PM 48.2 °F - 46.4 °F 93% 30.01 in 9.0 mi Calm Calm - N/A Rain Light Rain
9:17 PM 46.4 °F 44.3 °F 44.6 °F 93% 29.96 in 9.0 mi WSW 4.6 mph - N/A Rain Light Rain
9:30 PM 46.4 °F 45.2 °F 44.6 °F 93% 29.96 in 6.0 mi WSW 3.5 mph - N/A Rain Light Rain
9:32 PM 46.4 °F 44.3 °F 44.6 °F 93% 29.96 in 6.0 mi WSW 4.6 mph - N/A Rain Light Rain
9:39 PM 46.4 °F 45.2 °F 44.6 °F 93% 29.96 in 6.0 mi WSW 3.5 mph - N/A Rain Light Rain
9:48 PM 46.4 °F 44.3 °F 44.6 °F 93% 29.97 in 6.0 mi WSW 4.6 mph - N/A Rain Light Rain
10:00 PM 46.4 °F 45.2 °F 44.6 °F 93% 30.02 in 6.0 mi West 3.5 mph - N/A Rain Light Rain
10:52 PM 44.6 °F 43.1 °F 44.6 °F 100% 29.95 in 9.0 mi West 3.5 mph - N/A   Overcast
11:00 PM 45 °F - 44 °F 92% 30.00 in 9 mi West 3.5 mph - -   Overcast
11:00 PM 44.6 °F - 42.8 °F 93% 30.00 in 9.0 mi WSW 2.3 mph - N/A   Overcast